Regional Weather Roundup
Issued by NWS

Home | Current Version | Previous Version | Graphics & Text | Print | Product List | Glossary On
Versions: 1 2 3 4 5 6 7 8 9 10 11 12 13 14 15 16 17 18 19 20 21 22 23 24 25 26 27 28 29 30 31 32 33 34 35 36 37 38 39 40 41 42 43 44 45 46 47 48 49 50
256
ASUS45 KBOU 231207
RWRCO

WEATHER ROUNDUP FOR COLORADO
NATIONAL WEATHER SERVICE DENVER/BOULDER CO
600 AM MDT SAT JUL 23 2016

NOTE: "FAIR" INDICATES FEW OR NO CLOUDS BELOW 12000 FEET WITH NO
SIGNIFICANT WEATHER AND/OR OBSTRUCTIONS TO VISIBILITY.

COZ001>005-013-030-031-231300-
...NORTHWEST COLORADO...

CITY           SKY/WX    TMP DP  RH WIND       PRES   REMARKS
CRAIG          FAIR      50  44  80 CALM      30.26R
HAYDEN         FAIR      55  43  62 E9        30.28S
MEEKER         FAIR      55  47  74 E6        30.28R
MOUNT WERNER   NOT AVBL
STEAMBOAT SPGS FAIR      51  45  79 CALM      30.31R
WALDEN         FAIR      50  41  71 SE6       30.38S
$$

COZ006>008-011-231300-
...WEST CENTRAL VALLEYS...

CITY           SKY/WX    TMP DP  RH WIND       PRES   REMARKS
GRAND JUNCTION FAIR      66  54  65 E12       30.15R
MONTROSE       FAIR      58  49  72 S5        30.26R
EAGLE          FAIR      54  48  82 CALM      30.35R
RIFLE          FAIR      58  50  75 CALM      30.23R
DELTA          FAIR      62  54  75 CALM      30.22R
NUCLA          NOT AVBL
$$

COZ017>023-064>068-231300-
...SOUTHWEST COLORADO...

CITY           SKY/WX    TMP DP  RH WIND       PRES   REMARKS
DURANGO        FAIR      60  47  61 CALM      30.29S
CORTEZ         FAIR      54  47  77 E5        30.24S
PAGOSA SPRINGS FAIR      62  44  52 CALM      30.36S
TELLURIDE      FAIR      52  44  74 SE7       30.49F
WOLF CREEK PAS FAIR      50  37  62 W6        30.70S
$$

COZ009-010-012-014-032>034-037-058>063-231300-
...CENTRAL COLORADO...

CITY           SKY/WX    TMP DP  RH WIND       PRES   REMARKS
ASPEN          FAIR      50  45  83 S7        30.38R
BUENA VISTA    FAIR      54  44  67 CALM      30.38R
COPPER MTN     FAIR      52  37  58 W5        30.69S
BERTHOUD PASS  CLOUDY    45  32  61 NW20G26   30.71R
COTTONWOOD PAS FAIR      59  41  51 W10G17    30.50S
GUNNISON       FAIR      48  43  81 CALM      30.45R
KREMMLING      FAIR      48  45  87 CALM      30.40R
LEADVILLE      FAIR      45  40  82 NE8       30.51S
MONARCH PASS   FAIR      46  37  71 W14G20    30.77R
SALIDA         FAIR      55  47  74 W6        30.42S
SUNLIGHT       FAIR      59  36  41 CALM      30.62R
WILKERSON PASS FAIR      54  34  47 NW6       30.63R
$$

COZ069>075-231300-
...SAN LUIS VALLEY/SANGRE DE CRISTO MOUNTAINS...

CITY           SKY/WX    TMP DP  RH WIND       PRES   REMARKS
ALAMOSA        FAIR      56  48  74 N3        30.34S
LA VETA PASS   FAIR      52  41  66 S12G17    30.49F
SAGUACHE       FAIR      55  46  71 N8        30.39R
$$

COZ035-036-038>040-231300-
...NORTHERN COLORADO FRONT RANGE...

CITY           SKY/WX    TMP DP  RH WIND       PRES   REMARKS
DENVER INTL AP FAIR      68  47  46 SW13      30.10R
DMNS CITY PARK   N/A     67  48  51 S8        30.10S
AURORA         PTCLDY    65  47  52 S9        30.13R
FRONT RANGE AP NOT AVBL
ERIE MUNI ARPT FAIR      60  53  80 CALM      30.08R
BOULDER MUN AP FAIR      63  52  67 CALM      30.08S
CENTENNIAL     FAIR      62  44  51 VRB3      30.14S
BROOMFIELD     FAIR      68  43  40 W3        30.12S
LONGMONT       FAIR      62  54  74 CALM      30.09S
$$

COZ041-046-047-076>085-087-088-231300-
...PIKES PEAK/PALMER DIVIDE AND SOUTHERN FOOTHILLS...

CITY           SKY/WX    TMP DP  RH WIND       PRES   REMARKS
COLO. SPRINGS  FAIR      73  42  32 NW13      30.17S
A. F. ACADEMY  CLEAR     58  44  60 N7        30.20R
SCHRIEVER AFB  NOT AVBL
ELLICOTT       FAIR     N/A N/A N/A CALM      30.14S
FALCON         NOT AVBL
FORT CARSON    FAIR      65  45  48 NW7       30.13R
LIMON          FAIR      60  49  66 VRB3      30.09R
MONUMENT HILL  FAIR      59  43  55 W7        30.25S
TRINIDAD       NOT AVBL
$$

COZ042>045-048>051-090-091-231300-
...NORTHEAST COLORADO...

CITY           SKY/WX    TMP DP  RH WIND       PRES   REMARKS
GREELEY ARPT   FAIR      63  61  94 CALM      30.06S
AKRON          FAIR      67  60  78 S10       30.04R
BURLINGTON     FAIR      66  59  78 NE5       30.00S
WRAY           FAIR      70  63  78 S5        29.96F
STERLING       FAIR      68  64  88 W3        30.00R
HOLYOKE        FAIR      72  64  78 W5        29.97S
FORT MORGAN    FAIR      65  62  89 NW9       30.04S
$$

COZ086-089-092>099-231300-
...SOUTHEAST COLORADO...

CITY           SKY/WX    TMP DP  RH WIND       PRES   REMARKS
PUEBLO         FAIR      68  52  56 W8        30.04S
LA JUNTA       FAIR      70  53  54 W13       29.99S
LAMAR          FAIR      72  53  51 VRB6G21   29.94R
SPRINGFIELD      N/A     70  49  47 SW8       30.01F
$$




USA.gov is the U.S. government's official web portal to all federal, state and local government web resources and services.